Flag for Poland Weather past 2 weeks in Legnica, Poland

Now
70 °F

Passing clouds.


Feels Like: 70 °F
Forecast: 67 / 86 °F
Wind: 1 mph from Southeast

Location: Wroclaw Ii

Current Time: Jul 30, 2014 at 1:53:41 AM

Latest Report: Jul 30, 2014 at 1:00 AM


Visibility: 19 mi

Pressure: 29.73 "Hg

Humidity: 82%

Dew point: 64 °F

Location of LegnicaLocation

Historic Weather in Legnica — Graph

°F

Legnica temperature yesterday

Maximum temperature yesterday: 83 °F (at 5:00 PM)
Minimum temperature yesterday: 64 °F (at 6:00 AM)
Average temperature yesterday: 73 °F

Past Weeks' High & Low Weather Summary

 TemperatureHumidityPressure
High92 °F (Jul 20, 5:00 PM)98% (Jul 26, 6:00 AM)30.16 "Hg (Jul 26, 6:00 AM)
Low59 °F (Jul 15, 5:00 AM)32% (Jul 20, 3:00 PM)29.71 "Hg (Jul 29, 7:00 PM)
Average74 °F68%29.96 "Hg
* Reported Midnight between Jul 14 and Jul 15 — Midnight between Jul 29 and Jul 30, Legnica, Weather by CustomWeather, © 2014

Note: Actual official high and low records may vary slightly from our data, if they occured in-between our weather recording intervals... More about our weather records

Advertising

Legnica weather history for previous 24 hours

 ConditionsComfort  
Time TempWeatherWind HumidityBarometerVisibility
12:00 AM
Jul 30
72 °FPassing clouds.2 mph79%29.74 "Hg19 mi
11:00 PM
Jul 29
72 °FPassing clouds.1 mph79%29.74 "Hg19 mi
10:00 PM73 °FPassing clouds.1 mph73%29.74 "Hg19 mi
9:00 PM77 °FPassing clouds.2 mph64%29.73 "Hg19 mi
8:00 PM80 °FPartly sunny.1 mph60%29.72 "Hg25 mi
7:00 PM82 °FPartly sunny.3 mph57%29.71 "Hg31 mi
6:00 PMN/APassing clouds.31 mphN/AN/A4 mi
5:00 PM83 °FScattered clouds.5 mph56%29.73 "Hg25 mi
4:00 PM82 °FScattered clouds.5 mph55%29.75 "Hg25 mi
3:00 PM81 °FScattered clouds.6 mph56%29.77 "Hg25 mi
2:00 PM82 °FScattered clouds.6 mph60%29.78 "Hg25 mi
1:00 PM80 °FPartly sunny.5 mph64%29.79 "Hg19 mi
12:00 PM77 °FPassing clouds.3 mph73%29.80 "Hg16 mi
11:00 AM74 °FScattered clouds.3 mph80%29.81 "Hg9 mi
10:00 AM69 °FFog.2 mph92%29.81 "Hg4 mi
9:00 AM67 °FFog.3 mph98%29.81 "Hg2 mi
8:00 AM66 °FFog.2 mph98%29.81 "Hg0 mi
7:00 AM66 °FFog.1 mph98%29.81 "Hg1 mi
6:00 AM64 °FFog.1 mph97%29.81 "Hg0 mi
5:00 AM65 °FFog.1 mph97%29.81 "Hg0 mi
4:00 AM66 °FFog.1 mph97%29.81 "Hg0 mi
3:00 AM66 °FFog.1 mph97%29.81 "Hg0 mi
2:00 AMN/APassing clouds.29 mphN/AN/A16 mi
1:00 AM67 °FFog.2 mph95%29.82 "Hg4 mi
Weather by CustomWeather, © 2014

See weather overviewHow to use our weather pages